User: anonymous   Login
Location: Unspecified
(0.0000°N, 0.0000°E)
Time: 15:09:15
(UTC+01:00)
Language:

Cosmos 1626 Rocket - Orbit

View from above orbital plane
View from above orbital plane
View from above satellite
View from above satellite

Ground track
Ground track

The orbit data is extracted from the following two-line orbital elements,

1 15495U 85009B   17021.43160540  .00000085  00000-0  72641-5 0  9998
2 15495  82.5266 324.9270 0021728  94.0418 266.3281 14.83749736728207
Epoch (UTC): 21 January 2017 10:21:30
Eccentricity: 0.0021728
inclination: 82.5266°
perigee height: 602 km
apogee height: 633 km
right ascension of ascending node: 324.9270°
argument of perigee: 94.0418°
revolutions per day: 14.83749736
mean anomaly at epoch: 266.3281°
orbit number at epoch: 72820

The dashed part of the orbit path shows where the satellite is in the earth's shadow,  

DLR